Regional Weather Roundup
Issued by NWS Charleston, SC

Current Version | Previous Version | Graphics & Text | Print | Product List | Glossary On
Versions: 1 2 3 4 5 6 7 8 9 10 11 12 13 14 15 16 17 18 19 20 21 22 23 24 25 26 27 28 29 30 31 32 33 34 35 36 37 38 39 40 41 42 43 44 45 46 47 48 49 50
000
ASUS42 KCHS 241327
RWRCHS

REGIONAL WEATHER ROUNDUP
NATIONAL WEATHER SERVICE CHARLESTON SC
900 AM EDT SUN MAY 24 2015

NOTE: "FAIR" INDICATES FEW OR NO CLOUDS BELOW 12,000 FEET WITH NO
SIGNIFICANT WEATHER AND/OR OBSTRUCTIONS TO VISIBILITY.

NOT ALL STATIONS ARE QUALITY CONTROLLED BY THE NATIONAL
WEATHER SERVICE. USE DATA WITH CAUTION...ESPECIALLY
DEWPOINT OBSERVATIONS.

SCZ027-030-031-034>040-042>050-241400-
...SOUTHEAST SOUTH CAROLINA...

CITY           SKY/WX    TMP DP  RH WIND       PRES   REMARKS
N CHARLESTON   MOSUNNY   74  61  63 NE6       30.37R
WATERFRONT PAR   N/A     75  62  64 E13       30.33S
MOUNT PLEASANT FAIR      75  59  57 E5        30.37R
JOHNS ISLAND   SUNNY     77  59  53 E12       30.37R
PINOPOLIS        N/A    N/A N/A N/A E6        30.29
MONCKS CORNER  FAIR      75  59  57 E6        30.38S
SUMMERVILLE    FAIR      73  63  68 E3        30.39R
BEAUFORT MCAS  MOSUNNY   76  63  64 E6        30.35S
BEAUFORT ARPT  FAIR      77  61  57 E12       30.34S
HILTON HEAD IS SUNNY     75  63  64 NE9       30.35R
WALTERBORO     SUNNY     73  59  60 E8        30.37S
ALLENDALE      FAIR      73  61  64 E6        30.36S

...SOUTHERN MIDLANDS AND PEE DEE...

CITY           SKY/WX    TMP DP  RH WIND       PRES   REMARKS
GEORGETOWN     NOT AVBL
KINGSTREE      NOT AVBL
ORANGEBURG     SUNNY     72  60  66 E5        30.38F
BARNWELL       FAIR      73  61  64 E7        30.38S
AIKEN          FAIR      70  55  60 E6        30.41S
MANNING        FAIR      72  54  53 CALM      30.39S
COLUMBIA       PTSUNNY   71  58  63 SE5       30.38F
SUMTER         SUNNY     70  59  66 NE3       30.38S
FLORENCE       SUNNY     71  59  65 NE5       30.40F
MYRTLE BEACH   MOSUNNY   77  57  50 E12       30.41R
N MYRTLE BEACH SUNNY     76  58  53 E14       30.40R

$$

GAZ063-065-086>088-099>101-113>116-118-119-134>141-150-241400-
...SOUTHEAST GEORGIA...

CITY           SKY/WX    TMP DP  RH WIND       PRES   REMARKS
SAVANNAH ARPT  PTSUNNY   76  62  62 E9        30.34S
HUNTER AAF     MOSUNNY   77  63  61 E10       30.31
FORT STEWART   SUNNY     76  64  65 E9        30.31S
STATESBORO     SUNNY     74  65  74 SE7       30.35S
SYLVANIA       SUNNY     74  65  71 E6        30.36S
CLAXTON        FAIR      73  64  73 E10       30.34S

...CSRA...CENTRAL AND FAR SOUTHEAST GEORGIA...

CITY           SKY/WX    TMP DP  RH WIND       PRES   REMARKS
THOMSON        SUNNY     73  64  72 E5        30.41S
AUGUSTA-BUSH   SUNNY     69  60  73 E6        30.36F
AUGUSTA-DANIEL SUNNY     71  58  63 E9        30.37F
SWAINSBORO     FAIR      75  64  69 E9        30.35R
VIDALIA        SUNNY     75  63  64 E9        30.33S
EASTMAN        FAIR      76  67  75 E9        30.36R
HAZLEHURST     FAIR      77  67  71 E8        30.32R
ALMA           SUNNY     74  65  73 E8        30.31S
WAYCROSS       SUNNY     78  69  73 SE10      30.31S
JESUP          FAIR      81  68  65 E12       30.32S
BAXLEY         FAIR      77  66  69 E8        30.32R
BRUNSWICK      SUNNY     79  61  53 E14       30.32R
SAINT SIMONS   NOT AVBL

$$

SCZ027-028-034-036>038-045-046-048>050-GAZ119-141-241400-
...LAKE AND SUPPLEMENTAL COASTAL OBSERVATIONS...

STATION/POSITION TIME  TEMP    WIND        PRES    WAVE   SWELL
                       AIR SEA DIR/SP/G            HT/PER HT/PER/DIR
                 (UTC) (F)     (DEG/KT/KT) (MB)    (FT/S) (FT/S/D)
UPR LAKE MARION  NOT AVBL
WINYAH BAY       1245   74     110/  9     1028.0R
LAKE MURRAY      1200   68      CALM  /  2 1028.8R
ACE BASIN NERRS  NOT AVBL
FORT PULASKI     1300   75 78   70/ 14/ 15 1027.8R
SAPELO ISLAND    1300   78      70/ 10     1026.0S

$$

ANZ835-935-AMZ111-154-330-350-352-354-370-450-454-472-241400-
...C-MAN AND BUOY OBSERVATIONS...

STATION/POSITION TIME  TEMP    WIND        PRES    WAVE   SWELL
                       AIR SEA DIR/SP/G            HT/PER HT/PER/DIR
                 (UTC) (F)     (DEG/KT/KT) (MB)    (FT/S) (FT/S/D)
BUOY 41004       1250   75 75   90/ 16/ 17 1027.3R   5/ 7   2/14
BUOY 41008       1250   75 75   80/ 10/ 10 1026.6S   4/ 7   3/100/ 7
FOLLY BEACH CMAN 1300   74      90/ 13/ 15 1028.1R
CAPERS NEARSHORE 1208   75     100/ 14/ 17 1028.2R
FRIPP NEARSHORE  1200   76      90/ 12/ 14 1026.5R


STATION/POSITION TIME  TEMP    WIND        PRES    WAVE   SWELL
                       AIR SEA DIR/SP/G            HT/PER HT/PER/DIR
                 (UTC) (F)     (DEG/KT/KT) (MB)    (FT/S) (FT/S/D)
5E ST. MARYS GA  1221      77                N/A     5/ 7
FRYING PAN BUOY  1250   75 73  110/ 12/ 14 1029.5R   4/ 6   2/120/ 6
BUOY 41025       1250   74 77   80/  4/  6 1030.2R   2/ 6   2/ 50/ 6
CAPE LOOKOUT NC  1300   74      60/  5/  5 1029.7R
BUOY 41002       1250   72 74   70/ 19/ 21 1027.9R   6/ 6   2/100/10
BUOY 41010       1220   78 80   70/ 12/ 14 1023.8F
ST AUGUSTINE FL  1300   76 76   70/ 13/ 14 1026.0R


$$


USA.gov is the U.S. government's official web portal to all federal, state and local government web resources and services.